Zurück zum Katalog

COSMOS 407

AktivMilitärLEO
NORAD 5174·PAYLOAD·🇷🇺 Russia

Gestartet Apr 23, 1971 von Plesetsk Cosmodrome

Loading…

Nächste Überflüge (nächste 24 Stunden)

TLE

AktuellSource: Space-Track

Epoche: Sep 14, 2026, 13:56 UTC

1 05174U 71035A   26257.58117784  .00000074  00000-0  35625-4 0  9992
2 05174  74.0441 306.9485 0017151 107.2273 253.0758 14.34266603893400

Verfolge COSMOS 407 in Echtzeit mit AllMySat

Download on the App Store